Topeka, KS

1:23 PM CDT on July 22, 2017 (GMT -0500)
Billard Municipal

Weather History for KTOP - May, 2013

Change the Weather History Date:

Saturday, May 25, 2013

  Actual Average Record
Temperature  
Mean Temperature 74 °F 68 °F  
Max Temperature 84 °F 79 °F 95 °F (1953)
Min Temperature 64 °F 57 °F 39 °F (1925)
Degree Days  
Heating Degree Days 0 2  
Month to date heating degree days 133 90  
Since 1 July heating degree days 4896 5007  
Cooling Degree Days 9 5  
Month to date cooling degree days 74 68  
Year to date cooling degree days 90 96  
Growing Degree Days 24 (Base 50)    
Moisture  
Dew Point 60 °F    
Average Humidity 63    
Maximum Humidity 79    
Minimum Humidity 47    
Precipitation  
Precipitation 0.00 in 0.16 in 1.42 in (2011)
Month to date precipitation 2.15 3.96  
Year to date precipitation 9.72 12.16  
Snow  
Snow 0.00 in 0.00 in 0.00 in ()
Month to date snowfall T 0.0  
Year to date snowfall 24.2 11.3  
Since 1 July snowfall 29.6 17.8  
Snow Depth 0.00 in    
Sea Level Pressure  
Sea Level Pressure 30.06 in    
Wind  
Wind Speed 10 mph (South)    
Max Wind Speed 23 mph    
Max Gust Speed 30 mph    
Visibility 10 miles    
Events      
T = Trace of Precipitation, MM = Missing Value Source: NWS Daily Summary

Daily Weather History Graph

Daily Weather History Graph

Search for Another Location

Airport or City:

Trip Planner

Search our weather history database for the weather conditions in past years. The results will help you decide how hot, cold, wet, or windy it might be!

Date:

Astronomy

May. 25, 2013 Rise Set
Actual Time 6:01 AM CDT 8:37 PM CDT
Civil Twilight 5:30 AM CDT 9:08 PM CDT
Nautical Twilight 4:52 AM CDT 9:47 PM CDT
Astronomical Twilight 4:09 AM CDT 10:30 PM CDT
Moon 9:26 PM CDT (5/25) 6:29 AM CDT (5/25)
Length of Visible Light 15h 37m
Length of Day
14h 35m
Full, 100% of the Moon is Illuminated
May 25
Full
May 31
Last Quarter
Jun 8
New
Jun 16
First Quarter
Jun 23
Full

Hourly Weather History & Observations

Time (CDT) Temp. Heat Index Dew Point Humidity Pressure Visibility Wind Dir Wind Speed Gust Speed Precip Events Conditions
12:53 AM 64.9 °F - 53.1 °F 65% 30.12 in 10.0 mi ESE 8.1 mph - N/A   Overcast
1:53 AM 64.9 °F - 53.1 °F 65% 30.10 in 10.0 mi SE 9.2 mph - N/A   Overcast
2:53 AM 64.9 °F - 53.1 °F 65% 30.08 in 10.0 mi SE 10.4 mph - N/A   Mostly Cloudy
3:53 AM 66.9 °F - 55.0 °F 66% 30.12 in 10.0 mi SSE 8.1 mph - N/A   Mostly Cloudy
4:53 AM 66.9 °F - 57.0 °F 70% 30.10 in 10.0 mi South 8.1 mph - N/A   Clear
5:42 AM 66.9 °F - 57.9 °F 73% 30.10 in 10.0 mi South 11.5 mph - N/A   Mostly Cloudy
5:53 AM 66.9 °F - 57.9 °F 73% 30.09 in 10.0 mi South 11.5 mph 20.7 mph N/A   Mostly Cloudy
6:10 AM 66.9 °F - 59.0 °F 76% 30.12 in 10.0 mi South 9.2 mph - N/A   Scattered Clouds
6:53 AM 66.9 °F - 59.0 °F 76% 30.10 in 10.0 mi South 8.1 mph - N/A   Partly Cloudy
7:53 AM 68.0 °F - 61.0 °F 78% 30.10 in 10.0 mi South 9.2 mph - N/A   Clear
8:53 AM 70.0 °F - 61.0 °F 73% 30.09 in 10.0 mi South 9.2 mph - N/A   Clear
9:53 AM 73.0 °F - 62.1 °F 68% 30.10 in 10.0 mi South 10.4 mph - N/A   Clear
10:53 AM 77.0 °F - 62.1 °F 60% 30.10 in 10.0 mi South 8.1 mph 18.4 mph N/A   Partly Cloudy
11:53 AM 79.0 °F - 62.1 °F 56% 30.09 in 10.0 mi SW 9.2 mph - N/A   Partly Cloudy
12:53 PM 80.1 °F 81.2 °F 62.1 °F 54% 30.08 in 10.0 mi South 9.2 mph 17.3 mph N/A   Mostly Cloudy
1:53 PM 82.0 °F 83.0 °F 62.1 °F 51% 30.05 in 10.0 mi SSW 12.7 mph 23.0 mph N/A   Partly Cloudy
2:53 PM 82.0 °F 83.1 °F 63.0 °F 52% 30.03 in 10.0 mi South 12.7 mph 18.4 mph N/A   Clear
3:53 PM 82.0 °F 83.1 °F 63.0 °F 52% 30.00 in 10.0 mi South 16.1 mph 25.3 mph N/A   Clear
4:53 PM 84.0 °F 84.5 °F 62.1 °F 47% 29.99 in 10.0 mi South 18.4 mph 29.9 mph N/A   Clear
5:53 PM 82.9 °F 83.7 °F 62.1 °F 49% 29.98 in 10.0 mi South 13.8 mph 23.0 mph N/A   Clear
6:53 PM 82.0 °F 82.7 °F 61.0 °F 49% 29.97 in 10.0 mi South 13.8 mph 21.9 mph N/A   Partly Cloudy
7:53 PM 81.0 °F 81.7 °F 61.0 °F 50% 29.97 in 10.0 mi South 8.1 mph - N/A   Clear
8:53 PM 77.0 °F - 62.1 °F 60% 29.97 in 10.0 mi SSE 6.9 mph - N/A   Clear
9:53 PM 73.0 °F - 63.0 °F 71% 30.02 in 10.0 mi SE 5.8 mph - N/A   Clear
10:53 PM 71.1 °F - 63.0 °F 75% 30.02 in 10.0 mi ESE 5.8 mph - N/A   Clear
11:53 PM 71.1 °F - 64.0 °F 78% 30.02 in 10.0 mi SE 5.8 mph - N/A   Clear